Regional Weather Roundup
Issued by NWS

Home | Current Version | Previous Version | Graphics & Text | Print | Product List | Glossary On
Versions: 1 2 3 4 5 6 7 8 9 10 11 12 13 14 15 16 17 18 19 20 21 22 23 24 25 26 27 28 29 30 31 32 33 34 35 36 37 38 39 40 41 42 43 44 45 46 47 48 49 50
000
ASUS43 KLMK 020402
RWRKY
KENTUCKY REGIONAL WEATHER ROUNDUP
NATIONAL WEATHER SERVICE LOUISVILLE KY
1200 AM EDT THU JUL 02 2015

NOTE "FAIR" INDICATES FEW OR NO CLOUDS BELOW 12,000 FEET
WITH NO SIGNIFICANT WEATHER AND/OR OBSTRUCTIONS TO VISIBILITY.

KYZ001>023-026-027-061>063-070>075-020500-
WESTERN AND SOUTH CENTRAL KENTUCKY

CITY           SKY/WX    TMP DP  RH WIND       PRES   REMARKS
PADUCAH        PTCLDY    73  69  87 CALM      29.90R
HENDERSON      MOCLDY    73  68  83 SW5       29.89S
OWENSBORO      MOCLDY    74  71  90 S7        29.92S
HOPKINSVILLE   PTCLDY    72  68  87 S9        29.93F
BOWLING GREEN  CLOUDY    73  65  75 S8        29.96S
GLASGOW        NOT AVBL
$$

KYZ024-025-028>034-038-045-046-053-020500-
NORTH CENTRAL KENTUCKY

CITY           SKY/WX    TMP DP  RH WIND       PRES   REMARKS
LOUISVILLE/SDF MOCLDY    74  69  85 SE5       29.93S
LOUISVILLE/LOU MOCLDY    73  69  87 CALM      29.94S
FORT KNOX      MOCLDY    71  69  94 S3        29.93S
$$

KYZ035>037-039>044-047>052-055>060-089>105-020500-
NORTHEAST KENTUCKY

CITY           SKY/WX    TMP DP  RH WIND       PRES   REMARKS
LEXINGTON      CLOUDY    70  67  90 SW5       29.96R FOG
COVINGTON      CLOUDY    69  65  86 CALM      29.94S
FRANKFORT      MOCLDY    70  67  90 CALM      29.94F FOG
$$

KYZ054-064>069-076>088-106>120-020500-
SOUTHEAST KENTUCKY

CITY           SKY/WX    TMP DP  RH WIND       PRES   REMARKS
JACKSON        CLOUDY    70  66  87 CALM      29.98R
LONDON         CLOUDY    69  64  84 SW8       29.99R
SOMERSET       NOT AVBL
MIDDLESBORO    RAIN      69  67  94 CALM      30.01S
MONTICELLO     MOCLDY    68  68 100 SW6       30.02S
$$




USA.gov is the U.S. government's official web portal to all federal, state and local government web resources and services.